Weather History for Mosby, MO

Change the Weather History Date:

Tuesday, December 25, 2012

  Actual Average (KMKC) Record (KMKC)
Temperature  
Mean Temperature 18 °F -  
Max Temperature 23 °F 38 °F 55 °F (2014)
Min Temperature 12 °F 21 °F 5 °F (2000)
Degree Days  
Heating Degree Days 46    
Moisture  
Dew Point 13 °F    
Average Humidity 79    
Maximum Humidity 93    
Minimum Humidity 63    
Precipitation  
Precipitation 0.00 in - - ()
Sea Level Pressure  
Sea Level Pressure 30.25 in    
Wind  
Wind Speed 11 mph (North)    
Max Wind Speed 21 mph    
Max Gust Speed 24 mph    
Visibility 10 miles    
Events      
Averages and records for this station are not official NWS values.
T = Trace of Precipitation, MM = Missing Value Source: NWS Daily Summary

Daily Weather History Graph

Daily Weather History Graph

Search for Another Location

Airport:

Trip Planner

Search our weather history database for the weather conditions in past years. The results will help you decide how hot, cold, wet, or windy it might be!

Date:

Astronomy

Dec. 25, 2012 Rise Set
Actual Time 7:35 AM CST 4:59 PM CST
Civil Twilight 7:05 AM CST 5:30 PM CST
Nautical Twilight 6:31 AM CST 6:03 PM CST
Astronomical Twilight 5:58 AM CST 6:36 PM CST
Moon 3:08 PM CST (12/25) 5:08 AM CST (12/25)
Length of Visible Light 10h 24m
Length of Day
9h 24m
Waxing Gibbous, 94% of the Moon is Illuminated
Dec 25
Waxing Gibbous
Dec 28
Full
Jan 4
Last Quarter
Jan 11
New
Jan 18
First Quarter

Hourly Weather History & Observations

Time (CST) Temp. Windchill Dew Point Humidity Pressure Visibility Wind Dir Wind Speed Gust Speed Precip Events Conditions
12:15 AM 19.4 °F 12.8 °F 14.0 °F 80% 30.18 in 10.0 mi North 4.6 mph - N/A   Clear
12:35 AM 19.4 °F 11.5 °F 14.0 °F 80% 30.18 in 10.0 mi North 5.8 mph - N/A   Unknown
12:55 AM 19.4 °F 9.5 °F 15.8 °F 86% 30.18 in 10.0 mi NNE 8.1 mph - N/A   Overcast
1:15 AM 19.4 °F 9.5 °F 15.8 °F 86% 30.17 in 10.0 mi NNE 8.1 mph - N/A   Overcast
1:35 AM 21.2 °F 10.1 °F 15.8 °F 80% 30.18 in 10.0 mi NNE 10.4 mph - N/A   Overcast
1:55 AM 21.2 °F 10.9 °F 17.6 °F 86% 30.18 in 10.0 mi NNE 9.2 mph - N/A   Overcast
2:15 AM 21.2 °F 11.7 °F 15.8 °F 80% 30.19 in 10.0 mi NNE 8.1 mph - N/A   Overcast
2:35 AM 19.4 °F 6.6 °F 15.8 °F 86% 30.19 in 10.0 mi NNE 12.7 mph - N/A   Overcast
2:55 AM 19.4 °F 6.6 °F 15.8 °F 86% 30.19 in 10.0 mi NNE 12.7 mph 16.1 mph N/A   Overcast
3:15 AM 19.4 °F 8.6 °F 15.8 °F 86% 30.19 in 10.0 mi NE 9.2 mph 18.4 mph N/A   Overcast
3:35 AM 19.4 °F 8.6 °F 15.8 °F 86% 30.20 in 10.0 mi NNE 9.2 mph 16.1 mph N/A   Overcast
3:55 AM 19.4 °F 9.5 °F 15.8 °F 86% 30.21 in 10.0 mi NNE 8.1 mph - N/A   Overcast
4:15 AM 19.4 °F 7.9 °F 15.8 °F 86% 30.21 in 10.0 mi NNE 10.4 mph - N/A   Overcast
4:55 AM 19.4 °F 6.0 °F 15.8 °F 86% 30.21 in 10.0 mi NNE 13.8 mph 18.4 mph N/A   Overcast
5:15 AM 19.4 °F 7.9 °F 15.8 °F 86% 30.22 in 10.0 mi NNE 10.4 mph - N/A   Overcast
5:35 AM 19.4 °F 7.9 °F 15.8 °F 86% 30.21 in 10.0 mi NNE 10.4 mph - N/A   Overcast
5:55 AM 19.4 °F 8.6 °F 15.8 °F 86% 30.22 in 10.0 mi NNE 9.2 mph - N/A   Overcast
6:15 AM 19.4 °F 9.5 °F 15.8 °F 86% 30.23 in 10.0 mi North 8.1 mph - N/A   Overcast
6:35 AM 19.4 °F 9.5 °F 15.8 °F 86% 30.23 in 10.0 mi North 8.1 mph - N/A   Overcast
6:55 AM 19.4 °F 9.5 °F 15.8 °F 86% 30.23 in 10.0 mi North 8.1 mph - N/A   Overcast
7:15 AM 17.6 °F 5.0 °F 15.8 °F 93% 30.23 in 10.0 mi North 11.5 mph - N/A   Overcast
7:35 AM 17.6 °F 6.4 °F 14.0 °F 86% 30.26 in 10.0 mi North 9.2 mph - N/A   Overcast
7:55 AM 17.6 °F 9.3 °F 15.8 °F 93% 30.29 in 10.0 mi North 5.8 mph - N/A   Overcast
8:15 AM 17.6 °F 6.4 °F 14.0 °F 86% 30.29 in 10.0 mi North 9.2 mph - N/A   Overcast
8:35 AM 17.6 °F 5.0 °F 14.0 °F 86% 30.30 in 10.0 mi North 11.5 mph - N/A   Overcast
8:55 AM 17.6 °F 4.3 °F 14.0 °F 86% 30.31 in 10.0 mi North 12.7 mph 18.4 mph N/A   Overcast
9:15 AM 17.6 °F 4.3 °F 14.0 °F 86% 30.32 in 10.0 mi North 12.7 mph - N/A   Overcast
9:35 AM 17.6 °F 4.3 °F 14.0 °F 86% 30.33 in 7.0 mi North 12.7 mph - N/A   Unknown
9:55 AM 17.6 °F 3.7 °F 14.0 °F 86% 30.33 in 7.0 mi North 13.8 mph 18.4 mph N/A   Overcast
10:15 AM 17.6 °F 3.2 °F 14.0 °F 86% 30.34 in 7.0 mi North 15.0 mph - N/A   Overcast
10:35 AM 17.6 °F 1.7 °F 14.0 °F 86% 30.31 in 7.0 mi North 18.4 mph - N/A   Overcast
10:55 AM 17.6 °F 1.3 °F 14.0 °F 86% 30.27 in 10.0 mi North 19.6 mph - N/A   Overcast
11:15 AM 17.6 °F 2.2 °F 14.0 °F 86% 30.25 in 10.0 mi North 17.3 mph - N/A   Overcast
11:35 AM 19.4 °F 4.5 °F 15.8 °F 86% 30.26 in 10.0 mi North 17.3 mph 21.9 mph N/A   Overcast
11:55 AM 19.4 °F 3.6 °F 14.0 °F 80% 30.23 in 10.0 mi North 19.6 mph 24.2 mph N/A   Overcast
12:15 PM 19.4 °F 6.6 °F 14.0 °F 80% 30.26 in 10.0 mi NNE 12.7 mph 19.6 mph N/A   Overcast
12:35 PM 19.4 °F 5.5 °F 14.0 °F 80% 30.25 in 10.0 mi North 15.0 mph - N/A   Mostly Cloudy
12:55 PM 21.2 °F 7.3 °F 14.0 °F 74% 30.25 in 10.0 mi North 16.1 mph 20.7 mph N/A   Scattered Clouds
1:35 PM 21.2 °F 7.3 °F 14.0 °F 74% 30.23 in 10.0 mi North 16.1 mph 23.0 mph N/A   Clear
1:55 PM 21.2 °F 7.8 °F 14.0 °F 74% 30.22 in 10.0 mi North 15.0 mph 19.6 mph N/A   Clear
2:15 PM 21.2 °F 5.6 °F 14.0 °F 74% 30.22 in 10.0 mi North 20.7 mph - N/A   Clear
2:35 PM 21.2 °F 6.8 °F 14.0 °F 74% 30.22 in 10.0 mi North 17.3 mph 23.0 mph N/A   Clear
2:55 PM 23.0 °F 9.2 °F 14.0 °F 68% 30.22 in 10.0 mi North 17.3 mph 23.0 mph N/A   Unknown
3:15 PM 23.0 °F 9.2 °F 14.0 °F 68% 30.24 in 10.0 mi North 17.3 mph 21.9 mph N/A   Clear
3:35 PM 23.0 °F 8.7 °F 14.0 °F 68% 30.25 in 10.0 mi North 18.4 mph - N/A   Clear
3:55 PM 23.0 °F 10.6 °F 12.2 °F 63% 30.27 in 10.0 mi North 13.8 mph - N/A   Clear
4:15 PM 23.0 °F 10.6 °F 12.2 °F 63% 30.28 in 10.0 mi North 13.8 mph - N/A   Clear
4:55 PM 21.2 °F 7.8 °F 12.2 °F 68% 30.28 in 10.0 mi North 15.0 mph - N/A   Mostly Cloudy
5:15 PM 21.2 °F 8.3 °F 10.4 °F 63% 30.28 in 10.0 mi North 13.8 mph 23.0 mph N/A   Overcast
5:35 PM 21.2 °F 8.3 °F 10.4 °F 63% 30.27 in 10.0 mi North 13.8 mph - N/A   Overcast
5:55 PM 21.2 °F 8.3 °F 10.4 °F 63% 30.28 in 10.0 mi North 13.8 mph - N/A   Mostly Cloudy
6:15 PM 21.2 °F 8.9 °F 10.4 °F 63% 30.29 in 10.0 mi North 12.7 mph 16.1 mph N/A   Clear
6:35 PM 19.4 °F 5.5 °F 10.4 °F 68% 30.29 in 10.0 mi North 15.0 mph - N/A   Clear
6:55 PM 19.4 °F 6.6 °F 10.4 °F 68% 30.30 in 10.0 mi North 12.7 mph 18.4 mph N/A   Clear
7:15 PM 19.4 °F 5.0 °F 10.4 °F 68% 30.29 in 10.0 mi North 16.1 mph - N/A   Clear
7:35 PM 17.6 °F 5.7 °F 10.4 °F 73% 30.29 in 10.0 mi North 10.4 mph - N/A   Clear
7:55 PM 17.6 °F 4.3 °F 10.4 °F 73% 30.28 in 10.0 mi North 12.7 mph 17.3 mph N/A   Clear
8:15 PM 17.6 °F 4.3 °F 10.4 °F 73% 30.28 in 10.0 mi North 12.7 mph 21.9 mph N/A   Clear
8:35 PM 17.6 °F 5.0 °F 10.4 °F 73% 30.27 in 10.0 mi North 11.5 mph - N/A   Clear
8:55 PM 15.8 °F 1.4 °F 10.4 °F 79% 30.27 in 10.0 mi North 13.8 mph 17.3 mph N/A   Clear
9:15 PM 15.8 °F 1.4 °F 10.4 °F 79% 30.26 in 10.0 mi North 13.8 mph - N/A   Clear
9:35 PM 14.0 °F -2.0 °F 8.6 °F 79% 30.25 in 10.0 mi North 16.1 mph - N/A   Clear
10:15 PM 14.0 °F -0.8 °F 8.6 °F 79% 30.25 in 10.0 mi North 13.8 mph - N/A   Clear
10:35 PM 14.0 °F -1.4 °F 8.6 °F 79% 30.26 in 10.0 mi North 15.0 mph - N/A   Clear
10:55 PM 14.0 °F -0.2 °F 8.6 °F 79% 30.26 in 10.0 mi North 12.7 mph - N/A   Clear
11:15 PM 14.0 °F -0.2 °F 8.6 °F 79% 30.26 in 10.0 mi North 12.7 mph - N/A   Clear
11:35 PM 12.2 °F -1.0 °F 8.6 °F 85% 30.27 in 10.0 mi North 10.4 mph - N/A   Clear